Starlink 11364

operational
NORAD ID: 61543 Int'l Des: 2024-184 Owner: SPXS Country: US Constellation: starlink
LEOCIRCULAR

Über Starlink 11364

Beschreibung wird geladen...

Live-Position

3D-Globus wird geladen...

Nächste Überflüge

Höhenverlauf

Altitude vs Time

uPlot chart will show altitude changes over time

Zweizeiliger Elementsatz

1 61543U 24184M 25351.23174816 -.00003718 00000-0 -25816-4 0 9993
2 61543 53.1600 282.9507 0001417 93.1350 266.9830 15.69727776 67467
Epoch: 17. Dez. 2025 • Age: 14 hours

Aktueller Status

Höhe 361.9 km
Geschwindigkeit 7.70 km/s
Subsatellitenpunkt 36.51°N, 65.88°W
Startdatum 15. Okt. 2024
Alter 1.1 years
Typ internet

Technische Details

Klassifizierung Payload
Masse 960.00 kg
Trockenmasse 910.00 kg
Gesamtmasse 960.00 kg
Länge 0.30 m
Durchmesser 4.10 m
Spannweite 29.00 m
Form Box + pan
Hersteller SPXS
Bus-Typ Starlink V2MD
Phasenstatus In Orbit
Besitzer/Staat SPXS/US

Große Konstellationen

Loading constellations...